Home > Weather > Norfolk > Past weeks

Flag for Canada Weather for the Past 2 Weeks in Norfolk, Ontario, Canada

Now
56 °F

Refreshingly cool.


Feels Like: 54 °F
Forecast: 36 / 59 °F
Wind: 9 mph from Southeast

Location: Delhi Cs Ont

Current Time: Apr 30, 2016 at 3:17:29 PM

Latest Report: Apr 30, 2016 at 2:00 PM


Visibility: N/A

Pressure: 30.13 "Hg

Humidity: 56%

Dew Point: 41 °F

Location of NorfolkLocation

Historic Weather in Norfolk — Graph

°F

Norfolk Temperature Yesterday

Maximum temperature yesterday: 51 °F (at 6:00 PM)
Minimum temperature yesterday: 41 °F (at 12:00 AM)
Average temperature yesterday: 46 °F

High & Low Weather Summary for the Past Weeks

 TemperatureHumidityPressure
High76 °F (Apr 18, 2:00 PM)100% (Apr 20, 3:00 AM)30.45 "Hg (Apr 20, 3:00 AM)
Low29 °F (Apr 27, 3:00 AM)9% (Apr 20, 5:00 PM)29.75 "Hg (Apr 26, 9:00 AM)
Average49 °F57%30.12 "Hg
* Reported Apr 15 2:00 PM — Apr 30 2:00 PM, Norfolk, Weather by CustomWeather, © 2016

Note: Actual official high and low records may vary slightly from our data, if they occured in-between our weather recording intervals... More about our weather records

Advertising

Norfolk Weather History for the Previous 24 Hours

Scroll right to see more
 ConditionsComfort  
Time TempWeatherWind HumidityBarometerVisibility
2:00 PM
Sat, Apr 30
56 °FRefreshingly cool.9 mph56%30.13 "HgN/A
1:00 PM57 °FRefreshingly cool.9 mph53%30.14 "HgN/A
12:00 PM56 °FRefreshingly cool.7 mph55%30.14 "HgN/A
11:00 AM53 °FCool.6 mph61%30.16 "HgN/A
10:00 AM50 °FCool.7 mph63%30.18 "HgN/A
9:00 AM46 °FCool.6 mph58%30.19 "HgN/A
8:00 AM43 °FQuite cool.2 mph60%30.17 "HgN/A
7:00 AM32 °FChilly.1 mph92%30.17 "HgN/A
6:00 AM30 °FChilly.1 mph98%30.16 "HgN/A
5:00 AM32 °FChilly.No wind95%30.16 "HgN/A
4:00 AM33 °FChilly.No wind100%30.16 "HgN/A
3:00 AM36 °FChilly.No wind83%30.15 "HgN/A
2:00 AM40 °FChilly.3 mph80%30.14 "HgN/A
1:00 AM39 °FChilly.2 mph83%30.15 "HgN/A
12:00 AM43 °FQuite cool.2 mph74%30.15 "HgN/A
11:00 PM
Fri, Apr 29
45 °FCool.5 mph68%30.16 "HgN/A
10:00 PM46 °FCool.1 mph53%30.16 "HgN/A
9:00 PM48 °FCool.No wind40%30.12 "HgN/A
8:00 PM49 °FCool.2 mph42%30.10 "HgN/A
7:00 PM51 °FCool.3 mph34%30.07 "HgN/A
6:00 PM51 °FCool.3 mph34%30.06 "HgN/A
5:00 PM51 °FCool.3 mph32%30.06 "HgN/A
4:00 PM51 °FCool.3 mph30%30.05 "HgN/A
3:00 PM49 °FCool.5 mph31%30.06 "HgN/A
Weather by CustomWeather, © 2016

See weather overviewHow to use our weather pages